OE3WYC-1 Weather Reports


time (UTC)temp
C
wind
direction
speed
KPH
gust
KPH
rain 1hr
cm
rain 24hr
cm
rain mn
cm
humidity
%
barometer
mb
20260905212001 21 0 0.0 0.0 0.00 0.00 0.00 63 1020.7
20260905211502 21 247 0.0 8.0 0.00 0.00 0.00 63 1020.5
20260905211000 21 247 0.0 8.0 0.00 0.00 0.00 63 1020.4
20260905210501 21 0 0.0 0.0 0.00 0.00 0.00 62 1020.3
20260905210001 21 0 0.0 0.0 0.00 0.00 0.00 62 1020.4
20260905205502 21 0 0.0 0.0 0.00 0.00 0.00 62 1020.5
20260905204001 21 247 0.0 3.2 0.00 0.00 0.00 62 1020.4
20260905203503 21 247 0.0 3.2 0.00 0.00 0.00 62 1020.3
20260905203001 21 0 0.0 0.0 0.00 0.00 0.00 62 1020.4
20260905202501 21 0 0.0 0.0 0.00 0.00 0.00 63 1020.2
20260905201501 22 247 0.0 12.9 0.00 0.00 0.00 63 1020.3
20260905201001 22 0 0.0 0.0 0.00 0.00 0.00 63 1020.2
20260905200501 22 0 0.0 0.0 0.00 0.00 0.00 63 1020.2
20260905200001 22 247 0.0 3.2 0.00 0.00 0.00 62 1020.2
20260905195502 22 247 0.0 12.9 0.00 0.00 0.00 62 1020.1
20260905195001 22 247 0.0 12.9 0.00 0.00 0.00 62 1019.9
20260905194002 22 247 0.0 8.0 0.00 0.00 0.00 62 1020.0
20260905193501 22 247 0.0 11.3 0.00 0.00 0.00 62 1019.9
20260905193001 22 247 0.0 11.3 0.00 0.00 0.00 62 1019.9
20260905192501 22 0 0.0 0.0 0.00 0.00 0.00 62 1019.9
20260905192003 22 247 0.0 8.0 0.00 0.00 0.00 62 1019.9
20260905191501 22 247 0.0 8.0 0.00 0.00 0.00 62 1019.8
20260905191001 22 0 0.0 0.0 0.00 0.00 0.00 62 1019.7
20260905190501 22 0 0.0 0.0 0.00 0.00 0.00 62 1020.0
20260905185501 22 247 0.0 8.0 0.00 0.00 0.00 61 1019.8
20260905185001 22 0 0.0 0.0 0.00 0.00 0.00 61 1019.7
20260905184501 22 0 0.0 0.0 0.00 0.00 0.00 61 1019.6
20260905184002 22 0 0.0 0.0 0.00 0.00 0.00 62 1019.5
20260905183501 22 0 0.0 0.0 0.00 0.00 0.00 61 1019.4
20260905183001 22 0 0.0 0.0 0.00 0.00 0.00 61 1019.4
20260905182501 22 0 0.0 0.0 0.00 0.00 0.00 61 1019.3
20260905182002 22 0 0.0 0.0 0.00 0.00 0.00 61 1019.2
20260905181501 22 0 0.0 0.0 0.00 0.00 0.00 62 1019.2
20260905181001 22 247 0.0 8.0 0.00 0.00 0.00 61 1019.0
20260905180501 23 247 0.0 8.0 0.00 0.00 0.00 60 1019.2
20260905180002 23 0 0.0 0.0 0.00 0.00 0.00 61 1019.1
20260905175501 23 0 0.0 0.0 0.00 0.00 0.00 61 1019.0
20260905175002 23 0 0.0 0.0 0.00 0.00 0.00 60 1018.9
20260905174501 23 0 0.0 0.0 0.00 0.00 0.00 60 1018.8
20260905174002 23 0 0.0 0.0 0.00 0.00 0.00 61 1018.8
20260905173501 23 0 0.0 0.0 0.00 0.00 0.00 61 1018.6
20260905173001 23 0 0.0 0.0 0.00 0.00 0.00 61 1018.5
20260905172501 23 0 0.0 0.0 0.00 0.00 0.00 61 1018.5
20260905172002 23 247 0.0 8.0 0.00 0.00 0.00 60 1018.5
20260905171501 23 247 0.0 8.0 0.00 0.00 0.00 60 1018.6
20260905171001 23 247 0.0 6.4 0.00 0.00 0.00 60 1018.5
20260905170500 23 247 0.0 6.4 0.00 0.00 0.00 60 1018.5
20260905170002 23 247 0.0 6.4 0.00 0.00 0.00 59 1018.4
20260905165500 23 247 0.0 6.4 0.00 0.00 0.00 58 1018.3
20260905165001 23 247 0.0 4.8 0.00 0.00 0.00 57 1018.2
20260905164501 24 253 0.0 6.4 0.00 0.00 0.00 57 1018.1
20260905164003 24 255 0.0 6.4 0.00 0.00 0.00 57 1018.1
20260905161501 24 279 0.0 9.7 0.00 0.00 0.00 59 1018.0
20260905161001 24 293 0.0 6.4 0.00 0.00 0.00 59 1017.8
20260905160501 24 266 0.0 9.7 0.00 0.00 0.00 59 1017.9
20260905160002 24 266 0.0 9.7 0.00 0.00 0.00 60 1017.8
20260905155501 25 314 0.0 8.0 0.00 0.00 0.00 60 1017.9
20260905155001 25 221 0.0 16.1 0.00 0.00 0.00 60 1017.8
20260905154501 25 240 0.0 16.1 0.00 0.00 0.00 59 1017.8
20260905154002 25 234 16.1 16.1 0.00 0.00 0.00 58 1017.7
20260905153501 25 216 0.0 12.9 0.00 0.00 0.00 58 1017.8
20260905153001 25 220 0.0 12.9 0.00 0.00 0.00 58 1017.8
20260905152501 25 223 6.4 14.5 0.00 0.00 0.00 58 1017.8
20260905152001 25 229 0.0 14.5 0.00 0.00 0.00 58 1017.6
20260905151501 25 247 11.3 11.3 0.00 0.00 0.00 57 1017.8
20260905151003 25 270 0.0 11.3 0.00 0.00 0.00 58 1017.6
20260905150501 25 294 0.0 16.1 0.00 0.00 0.00 58 1017.9
20260905150001 25 306 0.0 16.1 0.00 0.00 0.00 58 1017.8
20260905145501 25 235 0.0 8.0 0.00 0.00 0.00 59 1018.0
20260905145002 25 203 0.0 8.0 0.00 0.00 0.00 58 1017.7
20260905144501 25 220 0.0 6.4 0.00 0.00 0.00 59 1017.6
20260905144001 25 211 0.0 11.3 0.00 0.00 0.00 58 1017.7
20260905143501 25 213 0.0 19.3 0.00 0.00 0.00 58 1017.7
20260905143002 25 214 0.0 19.3 0.00 0.00 0.00 57 1017.8
20260905142501 25 205 8.0 17.7 0.00 0.00 0.00 58 1017.8
20260905142001 25 203 0.0 17.7 0.00 0.00 0.00 58 1017.8
20260905141002 25 203 0.0 22.5 0.00 0.00 0.00 59 1017.8
20260905140501 25 229 0.0 14.5 0.00 0.00 0.00 59 1017.9
20260905140001 25 214 0.0 19.3 0.00 0.00 0.00 58 1018.1
20260905134500 24 206 0.0 17.7 0.00 0.00 0.00 58 1017.8
20260905134001 24 204 0.0 20.9 0.00 0.00 0.00 58 1018.1
20260905133502 24 205 20.9 20.9 0.00 0.00 0.00 59 1018.0
20260905133000 24 209 0.0 17.7 0.00 0.00 0.00 59 1018.1
20260905132501 24 216 6.4 17.7 0.00 0.00 0.00 58 1018.1
20260905132001 24 297 0.0 11.3 0.00 0.00 0.00 58 1018.1
20260905131502 24 268 0.0 11.3 0.00 0.00 0.00 58 1018.2
20260905131001 24 258 0.0 9.7 0.00 0.00 0.00 58 1018.3
20260905130500 24 255 0.0 11.3 0.00 0.00 0.00 59 1018.1
20260905130002 24 224 0.0 11.3 0.00 0.00 0.00 60 1018.2
20260905125501 23 241 0.0 14.5 0.00 0.00 0.00 60 1018.3
20260905125001 23 319 14.5 14.5 0.00 0.00 0.00 61 1018.2
20260905124002 23 297 0.0 11.3 0.00 0.00 0.00 61 1018.2
20260905123500 23 270 0.0 8.0 0.00 0.00 0.00 62 1018.2
20260905123001 23 270 0.0 8.0 0.00 0.00 0.00 62 1018.3
20260905122501 23 262 4.8 8.0 0.00 0.00 0.00 61 1018.3
20260905122000 23 251 0.0 12.9 0.00 0.00 0.00 61 1018.3
20260905121502 23 272 8.0 14.5 0.00 0.00 0.00 62 1018.4
20260905121000 23 280 0.0 14.5 0.00 0.00 0.00 62 1018.4
20260905115502 23 249 0.0 17.7 0.00 0.00 0.00 62 1018.6
20260905115001 23 288 6.4 9.7 0.00 0.00 0.00 62 1018.5
20260905114500 23 287 3.2 9.7 0.00 0.00 0.00 62 1018.5
20260905114001 23 299 8.0 9.7 0.00 0.00 0.00 63 1018.4
20260905113502 22 304 0.0 14.5 0.00 0.00 0.00 62 1018.6
20260905113001 22 294 0.0 14.5 0.00 0.00 0.00 63 1018.6
20260905112501 22 284 0.0 11.3 0.00 0.15 0.00 63 1018.6
20260905111503 22 267 0.0 9.7 0.00 0.15 0.00 64 1018.6
20260905111001 22 266 0.0 9.7 0.00 0.15 0.00 64 1018.5
20260905110500 22 286 0.0 17.7 0.00 0.15 0.00 65 1018.7
20260905110001 22 282 6.4 17.7 0.00 0.15 0.00 65 1018.7
20260905105502 21 282 0.0 24.1 0.00 0.15 0.00 66 1018.8
20260905105000 21 282 6.4 24.1 0.00 0.15 0.00 66 1018.7
20260905104501 21 282 6.4 22.5 0.00 0.15 0.00 67 1018.6
20260905104001 21 289 0.0 22.5 0.00 0.15 0.00 67 1018.6
20260905103500 21 282 0.0 17.7 0.00 0.15 0.00 67 1018.8
20260905103002 21 275 0.0 19.3 0.00 0.15 0.00 68 1018.7
20260905102501 21 286 0.0 19.3 0.00 0.15 0.00 68 1018.6
20260905102001 21 290 9.7 14.5 0.00 0.15 0.00 68 1018.6
20260905101501 21 267 0.0 14.5 0.00 0.15 0.00 69 1018.7
20260905101001 20 247 0.0 9.7 0.00 0.15 0.00 69 1018.6
20260905100501 20 247 0.0 9.7 0.00 0.15 0.00 70 1018.6
20260905100001 20 247 0.0 8.0 0.00 0.15 0.00 70 1018.8
20260905095501 20 285 0.0 8.0 0.00 0.15 0.00 70 1018.7
20260905095000 20 294 0.0 8.0 0.00 0.15 0.00 70 1018.8
20260905094501 19 299 0.0 8.0 0.00 0.15 0.00 70 1018.7
20260905094001 19 292 0.0 6.4 0.00 0.15 0.00 70 1018.8
20260905093502 19 0 0.0 0.0 0.00 0.15 0.00 70 1018.8
20260905093000 19 0 0.0 0.0 0.00 0.15 0.00 70 1018.8
20260905092501 19 292 0.0 4.8 0.00 0.15 0.00 70 1018.9
20260905092001 19 292 0.0 4.8 0.00 0.15 0.00 70 1019.0
20260905091001 18 292 0.0 3.2 0.00 0.15 0.00 70 1019.1
20260905090501 19 0 0.0 0.0 0.00 0.15 0.00 69 1018.7
20260905090001 19 0 0.0 0.0 0.00 0.15 0.00 69 1018.6
20260905085503 19 0 0.0 0.0 0.00 0.15 0.00 68 1018.8
20260905085001 19 0 0.0 0.0 0.00 0.15 0.00 68 1018.9
20260905084500 19 0 0.0 0.0 0.00 0.15 0.00 68 1018.8
20260905083502 19 0 0.0 0.0 0.00 0.15 0.00 67 1019.3
20260905083000 19 0 0.0 0.0 0.00 0.15 0.00 67 1019.2
20260905082501 19 0 0.0 0.0 0.00 3.02 0.00 66 1019.0
20260905082000 19 0 0.0 0.0 0.00 3.02 0.00 66 1019.3
20260905081502 19 0 0.0 0.0 0.00 3.02 0.00 66 1019.2
20260905080501 19 0 0.0 0.0 0.00 3.02 0.00 66 1018.9
20260905080001 19 0 0.0 0.0 0.00 3.02 0.00 65 1019.3
20260905075500 19 0 0.0 0.0 0.00 3.02 0.00 65 1019.6
20260905072500 19 0 0.0 0.0 0.00 3.02 0.00 63 1019.6
20260905072000 19 0 0.0 0.0 0.00 3.02 0.00 63 1019.5
20260905071502 19 0 0.0 0.0 0.00 3.02 0.00 62 1019.1
20260905071001 19 314 0.0 6.4 0.00 3.02 0.00 62 1018.9
20260905070500 19 314 0.0 6.4 0.00 3.02 0.00 62 1019.0
20260905065502 19 304 0.0 9.7 0.00 3.02 0.00 61 1019.3
20260905065001 19 299 8.0 8.0 0.00 3.02 0.00 61 1019.5
20260905064501 20 308 0.0 6.4 0.00 3.02 0.00 60 1019.2
20260905064001 20 314 0.0 4.8 0.00 3.02 0.00 60 1019.3
20260905063502 20 331 0.0 12.9 0.00 3.02 0.00 60 1019.0
20260905063001 20 331 0.0 12.9 0.00 3.02 0.00 59 1018.7
20260905062501 20 9 0.0 16.1 0.00 3.02 0.00 58 1018.6
20260905062000 20 3 0.0 16.1 0.00 3.02 0.00 58 1018.4
20260905061502 20 349 0.0 9.7 0.00 3.02 0.00 57 1018.2
20260905060501 20 354 0.0 17.7 0.00 3.02 0.00 55 1017.8
20260905060001 21 2 6.4 20.9 0.00 3.02 0.00 56 1017.4
20260905055502 21 340 9.7 20.9 0.00 3.02 0.00 56 1017.2
20260905055000 20 345 0.0 14.5 0.00 3.02 0.00 56 1017.1
20260905054501 20 356 14.5 20.9 0.00 3.02 0.00 56 1016.7
20260905054000 20 1 9.7 20.9 0.00 3.02 0.00 56 1016.8
20260905053500 20 350 1.6 14.5 0.00 3.02 0.00 57 1016.5
20260905053002 20 349 0.0 14.5 0.00 3.02 0.00 58 1016.4
20260905052501 20 322 6.4 16.1 0.00 3.02 0.00 58 1016.4
20260905052000 20 300 0.0 16.1 0.00 3.02 0.00 58 1016.4
20260905051500 20 316 6.4 12.9 0.00 3.02 0.00 59 1016.0
20260905051001 20 327 4.8 12.9 0.00 3.02 0.00 59 1015.7
20260905050503 20 329 8.0 11.3 0.00 3.02 0.00 60 1015.6
20260905050001 20 336 0.0 9.7 0.00 3.02 0.00 60 1015.7
20260905045501 20 356 1.6 11.3 0.00 3.02 0.00 61 1015.3
20260905045001 21 21 6.4 17.7 0.00 3.02 0.00 62 1015.1
20260905044502 21 24 0.0 17.7 0.00 3.02 0.00 62 1014.9
20260905043001 21 329 0.0 9.7 0.00 3.02 0.00 62 1015.7
20260905042501 21 317 0.0 12.9 0.00 3.02 0.00 63 1015.3
20260905042002 21 334 3.2 12.9 0.00 3.02 0.00 63 1015.4
20260905041500 21 339 9.7 9.7 0.00 3.02 0.00 63 1015.1
20260905041001 21 332 6.4 16.1 0.00 3.02 0.00 62 1014.8
20260905040000 21 314 0.0 12.9 0.00 3.02 0.00 62 1014.8
20260905035500 22 327 0.0 12.9 0.00 3.02 0.00 61 1014.6
20260905035001 22 336 1.6 20.9 0.00 3.02 0.00 61 1015.0
20260905034501 22 326 6.4 20.9 0.00 3.02 0.00 61 1015.1
20260905034001 22 326 3.2 14.5 0.00 3.02 0.00 62 1014.7
20260905033501 22 338 4.8 11.3 0.00 3.02 0.00 63 1014.5
20260905033001 22 332 0.0 12.9 0.00 3.02 0.00 63 1014.4
20260905032500 22 330 4.8 14.5 0.00 3.02 0.00 63 1014.4
20260905031502 23 321 6.4 17.7 0.00 3.02 0.00 64 1014.0
20260905031000 23 354 0.0 12.9 0.00 3.02 0.00 65 1013.7
20260905030501 23 1 0.0 9.7 0.00 3.02 0.00 64 1013.7
20260905030000 23 229 0.0 6.4 0.00 3.02 0.00 64 1013.3
20260905025500 23 0 0.0 0.0 0.00 3.02 0.00 62 1013.1
20260905024501 23 0 0.0 0.0 0.00 3.02 0.00 61 1012.2
20260905024000 23 0 0.0 0.0 0.00 3.02 0.00 61 1012.0
20260905023502 23 0 0.0 0.0 0.00 3.02 0.00 61 1012.0
20260905022500 23 0 0.0 0.0 0.00 3.02 0.00 60 1012.2
20260905022000 23 0 0.0 0.0 0.00 3.02 0.00 59 1012.4
20260905021502 24 0 0.0 0.0 0.00 3.02 0.00 60 1012.5
20260905020501 24 0 0.0 0.0 0.00 3.02 0.00 60 1012.2
20260905020000 24 0 0.0 0.0 0.00 3.02 0.00 60 1012.0
20260905015502 24 0 0.0 0.0 0.00 3.02 0.00 60 1011.9
20260905015000 24 0 0.0 0.0 0.00 3.02 0.00 60 1011.8
20260905014001 24 0 0.0 0.0 0.00 3.02 0.00 60 1012.0
20260905013502 24 0 0.0 0.0 0.00 3.02 0.00 60 1012.0
20260905013001 24 0 0.0 0.0 0.00 3.02 0.00 60 1012.0
20260905012500 24 0 0.0 0.0 0.00 3.02 0.00 60 1011.9
20260905012001 24 0 0.0 0.0 0.00 3.02 0.00 60 1011.9
20260905010500 24 203 0.0 4.8 0.00 3.02 0.00 61 1011.8
20260905010001 23 203 0.0 11.3 0.00 3.02 0.00 61 1011.9
20260905005502 23 203 0.0 8.0 0.00 3.02 0.00 61 1011.9
20260905004500 23 203 0.0 3.2 0.00 3.02 0.00 62 1011.9
20260905004001 23 203 0.0 8.0 0.00 3.02 0.00 63 1011.9
20260905002500 22 203 0.0 9.7 0.00 3.02 0.00 64 1011.7
20260905002001 22 203 0.0 12.9 0.00 3.02 0.00 65 1011.6
20260905001502 22 208 0.0 12.9 0.00 3.02 0.00 66 1011.6
20260905001001 21 247 0.0 6.4 0.00 3.02 0.00 67 1011.5
20260905000500 21 247 0.0 3.2 0.00 3.02 0.00 67 1011.6
20260905000002 21 0 0.0 0.0 0.00 3.02 0.00 68 1011.5
20260904235500 21 0 0.0 0.0 0.00 3.02 0.00 69 1011.5
20260904235001 21 0 0.0 0.0 0.00 3.02 0.00 69 1011.5
20260904234501 21 0 0.0 0.0 0.00 3.02 0.00 70 1011.5
20260904234002 20 0 0.0 0.0 0.00 3.02 0.00 70 1011.6
20260904233501 20 0 0.0 0.0 0.00 3.02 0.00 70 1011.5
20260904233000 21 0 0.0 0.0 0.00 3.02 0.00 70 1011.4
20260904232500 21 0 0.0 0.0 0.00 3.02 0.00 70 1011.3
20260904232002 21 0 0.0 0.0 0.00 3.02 0.00 70 1011.5
20260904231500 21 0 0.0 0.0 0.00 3.02 0.00 69 1011.5
20260904231000 21 0 0.0 0.0 0.00 3.02 0.00 69 1011.3
20260904230501 21 0 0.0 0.0 0.00 3.02 0.00 69 1011.4
20260904230002 21 0 0.0 0.0 0.00 3.02 0.00 69 1011.3
20260904225001 21 0 0.0 0.0 0.00 3.02 0.00 68 1011.2
20260904224500 21 0 0.0 0.0 0.00 3.02 0.00 68 1011.4
20260904224001 21 0 0.0 0.0 0.00 3.02 0.00 68 1011.2
20260904223500 21 0 0.0 0.0 0.00 3.02 0.00 68 1011.1
20260904222501 21 0 0.0 0.0 0.00 3.02 0.00 67 1011.1
20260904221500 21 0 0.0 0.0 0.00 3.02 0.00 67 1011.2
20260904221000 21 0 0.0 0.0 0.00 3.02 0.00 67 1011.2
20260904220501 22 0 0.0 0.0 0.00 3.02 0.00 67 1011.0
20260904220002 22 0 0.0 0.0 0.00 3.02 0.00 67 1011.3
20260904215501 22 0 0.0 0.0 0.00 3.02 3.02 67 1011.3
20260904214500 22 0 0.0 0.0 0.00 3.02 3.02 66 1011.2
20260904214002 22 0 0.0 0.0 0.00 3.02 3.02 66 1011.3
20260904213502 22 0 0.0 0.0 0.00 3.02 3.02 66 1011.1
20260904213000 22 0 0.0 0.0 0.00 3.02 3.02 66 1011.1